Total_Precipitation_Accumulation
0.01 0.02 0.04 0.04 0.04 0.06 0.09 0.16 0.24 0.31 0.26 0.36 0.47 0.57 0.73 0.89 1.14 1.23 1.36 1.49 1.76 2.07 2.47 3.21 3.89 4.37 4.98 5.73 6.28 6.18 5.58 5.14 4.69 4.27 3.82 3.88 3.80 3.56 3.32 3.11 2.91 2.90 2.84 2.71
0.03 0.06 0.05 0.04 0.03 0.06 0.09 0.15 0.21 0.26 0.22 0.23 0.41 0.69 0.85 0.92 1.11 1.11 1.20 1.29 1.49 1.86 2.51 3.29 3.87 3.99 3.97 4.23 4.45 3.95 3.78 3.81 3.52 3.38 3.41 3.39 3.29 3.00 2.85 2.88 3.11 2.79 2.80 2.69
0.04 0.07 0.04 0.04 0.04 0.07 0.11 0.14 0.16 0.24 0.24 0.31 0.49 0.93 1.11 1.01 1.06 0.99 1.04 1.28 1.75 2.16 2.58 3.09 3.24 3.22 3.06 3.00 2.98 2.76 2.73 3.07 3.11 3.20 3.29 3.31 3.31 3.14 2.98 2.84 3.01 2.73 2.55 2.51
0.03 0.04 0.04 0.05 0.06 0.06 0.10 0.09 0.07 0.10 0.20 0.45 0.63 1.14 1.37 1.26 1.21 0.97 1.10 1.55 2.00 2.29 2.53 2.57 2.13 1.94 2.03 2.10 2.22 2.48 2.58 2.75 2.72 2.90 2.88 2.81 2.61 2.52 2.47 2.47 2.65 2.75 2.50 2.37
0.04 0.05 0.05 0.05 0.06 0.05 0.07 0.06 0.05 0.10 0.20 0.49 0.78 1.25 1.53 1.41 1.19 0.98 0.99 1.06 1.44 1.59 1.57 1.50 1.38 1.37 1.55 1.81 2.04 2.38 2.50 2.55 2.49 2.50 2.64 2.85 2.78 2.80 2.70 2.66 2.94 2.98 3.01 2.79
0.05 0.06 0.05 0.04 0.04 0.05 0.06 0.08 0.17 0.27 0.44 0.95 1.03 1.14 1.45 1.34 1.14 1.00 0.86 0.79 1.02 1.07 0.95 1.04 1.15 1.36 1.61 1.75 1.84 2.06 2.21 2.41 2.45 2.50 2.61 2.66 2.73 2.92 2.92 2.91 2.80 2.67 2.80 2.79
0.10 0.10 0.07 0.05 0.05 0.05 0.06 0.10 0.34 0.72 1.02 1.20 0.90 1.02 1.35 1.03 0.83 0.74 0.62 0.60 0.67 0.74 0.83 1.01 1.15 1.37 1.46 1.52 1.53 1.70 1.78 2.00 2.20 2.30 2.38 2.46 2.61 2.76 2.76 2.86 2.82 2.70 2.49 2.37
0.16 0.15 0.09 0.05 0.06 0.06 0.06 0.07 0.18 0.32 0.48 0.69 0.85 1.27 1.36 0.95 0.63 0.50 0.48 0.49 0.53 0.64 0.76 0.87 1.04 1.11 1.16 1.32 1.52 1.70 1.68 1.68 1.73 1.84 2.07 2.22 2.25 2.38 2.44 2.78 2.68 2.65 2.50 2.34
0.06 0.06 0.06 0.05 0.06 0.04 0.05 0.05 0.07 0.11 0.18 0.44 0.93 1.20 1.15 0.80 0.61 0.57 0.58 0.63 0.67 0.71 0.83 0.83 0.85 1.04 1.10 1.01 1.10 1.33 1.45 1.54 1.59 1.65 1.86 1.89 1.88 1.99 2.23 2.31 2.19 2.06 2.16 2.28
0.03 0.04 0.04 0.04 0.04 0.04 0.06 0.06 0.06 0.09 0.18 0.36 0.77 1.28 1.50 1.18 0.86 0.70 0.76 0.74 0.71 0.72 0.79 0.85 0.85 0.92 0.96 0.93 1.09 1.23 1.34 1.46 1.52 1.54 1.62 1.50 1.62 1.73 1.95 2.05 2.05 1.96 1.92 2.11
0.03 0.04 0.04 0.04 0.06 0.07 0.07 0.07 0.08 0.11 0.14 0.23 0.56 0.90 0.92 1.03 0.88 0.68 0.73 0.73 0.69 0.65 0.68 0.80 0.80 0.88 0.89 0.85 0.96 1.14 1.35 1.44 1.33 1.36 1.40 1.50 1.62 1.80 1.89 1.87 1.92 1.94 1.96 2.10
0.03 0.04 0.03 0.05 0.08 0.09 0.09 0.10 0.11 0.13 0.17 0.16 0.28 0.49 0.54 0.61 0.74 0.96 0.93 0.75 0.74 0.78 0.75 0.84 0.83 0.84 0.82 0.80 0.87 1.00 1.20 1.35 1.39 1.40 1.49 1.63 1.72 1.83 1.91 1.82 1.91 2.13 2.16 2.19
0.03 0.03 0.05 0.13 0.18 0.17 0.13 0.13 0.12 0.12 0.13 0.15 0.28 0.48 0.50 0.51 0.56 0.70 0.84 0.90 0.79 0.71 0.75 0.79 0.90 0.83 0.78 0.82 0.88 1.00 1.28 1.48 1.68 1.76 1.73 1.76 1.75 1.83 1.97 2.02 2.06 2.18 2.27 2.33
0.03 0.04 0.05 0.13 0.22 0.24 0.22 0.18 0.15 0.12 0.11 0.12 0.19 0.38 0.49 0.62 0.69 0.70 0.83 0.96 0.83 0.69 0.70 0.81 0.93 1.00 1.07 1.09 1.10 1.23 1.40 1.48 1.64 1.68 1.69 1.80 1.87 2.01 2.15 2.24 2.29 2.32 2.32 2.33
0.03 0.03 0.03 0.04 0.07 0.14 0.22 0.21 0.15 0.11 0.09 0.11 0.14 0.26 0.44 0.64 0.79 0.90 0.94 0.98 0.89 0.83 0.86 0.91 1.04 1.17 1.26 1.34 1.32 1.30 1.38 1.42 1.59 1.96 2.14 2.29 2.31 2.33 2.45 2.52 2.50 2.54 2.50 2.42
0.06 0.05 0.05 0.05 0.07 0.09 0.13 0.18 0.15 0.11 0.11 0.13 0.16 0.30 0.44 0.70 0.78 0.87 0.88 0.92 0.91 0.98 1.06 1.17 1.22 1.31 1.35 1.42 1.50 1.53 1.56 1.65 1.85 2.29 2.62 2.75 2.78 2.79 2.83 2.86 2.84 2.84 2.79 2.93
0.13 0.13 0.10 0.07 0.09 0.12 0.17 0.16 0.16 0.15 0.14 0.19 0.26 0.37 0.49 0.67 0.88 0.99 0.89 0.78 0.84 0.95 1.02 1.11 1.25 1.37 1.42 1.52 1.59 1.71 1.79 1.87 2.03 2.30 2.52 2.63 2.72 2.80 2.97 2.99 3.00 2.99 3.00 3.05
0.21 0.23 0.19 0.14 0.16 0.23 0.22 0.24 0.25 0.25 0.26 0.30 0.42 0.56 0.63 0.70 0.83 0.89 0.79 0.80 0.86 0.93 1.04 1.14 1.19 1.38 1.54 1.72 1.94 2.19 2.32 2.41 2.40 2.50 2.68 2.78 2.75 2.78 2.84 2.82 2.75 2.78 2.93 2.96
0.27 0.31 0.30 0.27 0.27 0.27 0.30 0.35 0.36 0.38 0.50 0.56 0.69 0.82 0.91 0.91 0.91 1.05 0.97 0.93 1.00 1.11 1.25 1.41 1.54 1.61 1.75 1.90 2.08 2.32 2.59 2.75 2.76 2.67 2.77 2.89 2.97 3.02 2.91 2.81 2.81 2.87 2.95 2.83
0.32 0.37 0.44 0.40 0.45 0.48 0.45 0.49 0.47 0.52 0.93 0.87 0.93 1.06 1.15 1.24 1.54 1.58 1.31 1.31 1.21 1.21 1.35 1.47 1.63 1.75 1.80 1.97 2.09 2.20 2.41 2.54 2.62 2.67 2.79 2.91 2.99 3.14 3.24 3.17 3.18 3.12 3.05 2.95
0.50 0.54 0.50 0.51 0.59 0.61 0.54 0.52 0.58 1.07 1.49 1.25 1.17 1.24 1.36 1.54 1.61 1.57 1.43 1.45 1.41 1.28 1.30 1.34 1.42 1.60 1.69 1.78 1.91 2.10 2.20 2.19 2.30 2.40 2.44 2.63 2.86 3.09 3.24 3.32 3.30 3.29 3.20 3.09
0.78 0.83 0.78 0.75 0.96 1.08 0.73 0.65 1.01 1.40 1.37 1.48 1.37 1.38 1.50 1.56 1.62 1.65 1.66 1.63 1.51 1.40 1.28 1.28 1.37 1.50 1.60 1.77 2.04 2.25 2.26 2.23 2.27 2.37 2.50 2.66 2.88 2.98 3.01 3.12 3.16 3.28 3.23 3.14
1.05 1.12 1.16 1.18 1.34 1.21 0.90 0.96 1.08 1.14 1.33 1.42 1.47 1.51 1.55 1.53 1.51 1.46 1.43 1.47 1.52 1.40 1.37 1.32 1.36 1.49 1.72 1.97 2.23 2.47 2.47 2.51 2.56 2.61 2.69 2.77 2.86 2.97 3.04 3.10 3.11 3.10 3.04 2.88
1.15 0.98 1.21 1.49 1.66 1.45 1.23 1.16 1.20 1.27 1.41 1.53 1.65 1.73 1.68 1.57 1.44 1.46 1.46 1.46 1.52 1.48 1.43 1.39 1.41 1.52 1.73 1.86 1.99 2.25 2.41 2.46 2.64 2.65 2.57 2.56 2.56 2.64 2.72 2.84 2.87 2.82 2.74 2.66
1.26 1.28 1.48 1.89 2.08 1.91 1.68 1.48 1.45 1.50 1.73 1.88 1.86 1.79 1.74 1.73 1.69 1.74 1.71 1.60 1.52 1.50 1.53 1.53 1.58 1.66 1.70 1.74 1.81 1.95 2.15 2.31 2.50 2.63 2.65 2.68 2.67 2.70 2.75 2.82 2.91 2.79 2.63 2.60
1.23 1.57 1.91 2.24 2.15 2.22 2.07 1.69 1.65 1.70 1.85 1.97 1.90 1.90 1.95 1.95 1.86 1.72 1.66 1.60 1.57 1.57 1.62 1.68 1.74 1.78 1.78 1.76 1.86 1.97 2.14 2.38 2.65 2.67 2.60 2.63 2.70 2.79 2.88 2.92 2.96 3.01 2.74 2.64